This demonstration page uses our WeatherBlox Daily Observations layout. Learn more.

Left ArrowRight Arrow

39.29038, -76.61219

Hourly Observations for May 6, 2017

Temp ( °F °C ) Dew Point ( °F °C ) Humidity (%) Winds ( mph kmh ) Pressure ( in mb ) Visibility ( mi km ) Precip ( " mm )
12:54 am 00:54 undefined 68 20 63 17.2 84 84 undefined N/A 29.36 994 N/A N/A
1:54 am 01:54 undefined 67 19.4 62 16.7 84 84 undefined N/A 29.34 994 N/A N/A
2:54 am 02:54 undefined 66 18.9 55 12.8 68 68 undefined N/A 29.32 993 N/A N/A
3:54 am 03:54 undefined 64 17.8 52 11.1 65 65 undefined N/A 29.32 993 N/A N/A
4:54 am 04:54 undefined 62 16.7 49 9.4 62 62 undefined N/A 29.32 993 N/A N/A
5:54 am 05:54 undefined 61 16.1 47 8.3 60 60 undefined N/A 29.33 993 N/A N/A
6:54 am 06:54 undefined 60 15.6 47 8.3 62 62 undefined N/A 29.35 994 N/A N/A
7:54 am 07:54 undefined 59 15 48 8.9 67 67 undefined N/A 29.35 994 N/A N/A
8:54 am 08:54 undefined 60 15.6 48 8.9 65 65 undefined N/A 29.36 994 N/A N/A
9:54 am 09:54 undefined 60 15.6 49 9.4 67 67 undefined N/A 29.36 994 N/A N/A
10:54 am 10:54 undefined 58 14.4 49 9.4 72 72 undefined N/A 29.38 995 N/A N/A
11:54 am 11:54 undefined 59 15 45 7.2 60 60 undefined N/A 29.41 996 N/A N/A
12:54 pm 12:54 undefined 61 16.1 45 7.2 56 56 undefined N/A 29.43 997 N/A N/A
1:54 pm 13:54 undefined 59 15 42 5.6 54 54 undefined N/A 29.43 997 N/A N/A
2:54 pm 14:54 undefined 59 15 43 6.1 56 56 undefined N/A 29.44 997 N/A N/A
3:54 pm 15:54 undefined 57 13.9 43 6.1 60 60 undefined N/A 29.46 998 N/A N/A
4:54 pm 16:54 undefined 55 12.8 43 6.1 64 64 undefined N/A 29.46 998 N/A N/A
5:54 pm 17:54 undefined 55 12.8 44 6.7 67 67 undefined N/A 29.49 999 N/A N/A
6:54 pm 18:54 undefined 54 12.2 47 8.3 77 77 undefined N/A 29.50 999 N/A N/A
7:54 pm 19:54 undefined 54 12.2 48 8.9 80 80 undefined N/A 29.52 1000 N/A N/A
8:54 pm 20:54 undefined 54 12.2 46 7.8 75 75 undefined N/A 29.54 1000 N/A N/A
9:54 pm 21:54 undefined 53 11.7 44 6.7 72 72 undefined N/A 29.55 1001 N/A N/A
10:54 pm 22:54 undefined 52 11.1 42 5.6 69 69 undefined N/A 29.56 1001 N/A N/A
11:54 pm 23:54 undefined 51 10.6 41 5 69 69 undefined N/A 29.58 1002 N/A N/A

Powered by AerisWeather